This is the latest recevied weather packets stored in our database for station/object AB4KN. If no packets are shown the sender has not sent any weather packets the latest 10 day(s).
| Time | Temp. | Humidity | Pressure | Rain* | Wind** | Luminosity | Snow |
|---|---|---|---|---|---|---|---|
| 1777205529 | 17.22° C | 89% | 1016.9 hPa | 0 mm | - | 19 W/m² | - |
| 1777205226 | 17.22° C | 89% | 1016.9 hPa | 0 mm | - | 19 W/m² | - |
| 1777204922 | 17.22° C | 89% | 1017.1 hPa | 0 mm | - | 19 W/m² | - |
| 1777204617 | 16.67° C | 89% | 1017 hPa | 0 mm | - | 18 W/m² | - |
| 1777204312 | 16.67° C | 89% | 1017.1 hPa | 0 mm | - | 22 W/m² | - |
| 1777204009 | 16.67° C | 89% | 1017.1 hPa | 0 mm | - | 12 W/m² | - |
| 1777203703 | 16.67° C | 89% | 1017.3 hPa | 0 mm | - | 9 W/m² | - |
| 1777203399 | 16.67° C | 89% | 1017.2 hPa | 0 mm | - | 4 W/m² | - |
| 1777203096 | 16.67° C | 89% | 1017 hPa | 0 mm | - | 4 W/m² | - |
| 1777202792 | 16.67° C | 89% | 1017.2 hPa | 0 mm | - | 3 W/m² | - |
| 1777202491 | 16.67° C | 89% | 1016.8 hPa | 0 mm | - | 2 W/m² | - |
| 1777202185 | 16.67° C | 89% | 1016.8 hPa | 0 mm | - | 1 W/m² | - |
| 1777201882 | 16.67° C | 89% | 1016.9 hPa | 0 mm | - | 1 W/m² | - |
| 1777201579 | 16.67° C | 89% | 1016.7 hPa | 0 mm | - | 0 W/m² | - |
| 1777201275 | 16.67° C | 89% | 1016.6 hPa | 0 mm | - | 0 W/m² | - |
| 1777200970 | 16.67° C | 89% | 1016.6 hPa | 0 mm | - | 0 W/m² | - |
| 1777200667 | 16.67° C | 89% | 1016.6 hPa | 0 mm | - | 0 W/m² | - |
| 1777200366 | 16.67° C | 89% | 1016.7 hPa | 0 mm | - | 0 W/m² | - |
| 1777200063 | 16.11° C | 89% | 1016.7 hPa | 0 mm | - | 0 W/m² | - |
| 1777199757 | 16.11° C | 89% | 1016.4 hPa | 0 mm | - | 0 W/m² | - |
| 1777199454 | 16.11° C | 89% | 1016.6 hPa | 0 mm | - | 0 W/m² | - |
| 1777199149 | 16.11° C | 89% | 1016.5 hPa | 0 mm | - | 0 W/m² | - |
| 1777198843 | 16.11° C | 89% | 1016.5 hPa | 0 mm | - | 0 W/m² | - |
| 1777198539 | 16.11° C | 89% | 1016.5 hPa | 0 mm | - | 0 W/m² | - |
| 1777198238 | 16.11° C | 89% | 1016.7 hPa | 0 mm | - | 0 W/m² | - |
* Rain latest hour (hover to see other rain measurements)
** Current wind speed in m/s (hover to see current wind gust speed)